Muskegon, MI

6:55 PM EDT on August 29, 2016 (GMT -0400)
Muskegon County

Weather History for KMKG - September, 2012

Change the Weather History Date:

Tuesday, September 4, 2012

  Actual Average Record
Temperature  
Mean Temperature 77 °F 66 °F  
Max Temperature 86 °F 76 °F 90 °F (1999)
Min Temperature 68 °F 57 °F 36 °F (1974)
Degree Days  
Heating Degree Days 0 2  
Month to date heating degree days 0 8  
Since 1 July heating degree days 12 38  
Cooling Degree Days 12 3  
Month to date cooling degree days 46 14  
Year to date cooling degree days 897 521  
Growing Degree Days 28 (Base 50)    
Moisture  
Dew Point 67 °F    
Average Humidity 73    
Maximum Humidity 90    
Minimum Humidity 55    
Precipitation  
Precipitation 0.26 in 0.12 in 3.25 in (2008)
Month to date precipitation 0.26 0.47  
Year to date precipitation 20.50 21.05  
Snow  
Snow 0.00 in 0.00 in - ()
Month to date snowfall 0.0 0.0  
Since 1 July snowfall 0.0 0.0  
Since 1 September snowfall 0.0 0.0  
Snow Depth 0.00 in    
Sea Level Pressure  
Sea Level Pressure 29.88 in    
Wind  
Wind Speed 3 mph (North)    
Max Wind Speed 10 mph    
Max Gust Speed 13 mph    
Visibility 9 miles    
Events Rain    
T = Trace of Precipitation, MM = Missing Value Source: NWS Daily Summary

Daily Weather History Graph

Daily Weather History Graph

Search for Another Location

Airport or City:

Trip Planner

Search our weather history database for the weather conditions in past years. The results will help you decide how hot, cold, wet, or windy it might be!

Date:

Astronomy

Sep. 04, 2012 Rise Set
Actual Time 7:13 AM EDT 8:13 PM EDT
Civil Twilight 6:43 AM EDT 8:42 PM EDT
Nautical Twilight 6:09 AM EDT 9:17 PM EDT
Astronomical Twilight 5:32 AM EDT 9:53 PM EDT
Moon 9:57 PM EDT (9/4) 11:27 AM EDT (9/4)
Length of Visible Light 13h 58m
Length of Day
13h 00m
Waning Gibbous, 84% of the Moon is Illuminated
Sep 4
Waning Gibbous
Sep 8
Last Quarter
Sep 15
New
Sep 22
First Quarter
Sep 29
Full

Hourly Weather History & Observations

Time (EDT) Temp. Heat Index Dew Point Humidity Pressure Visibility Wind Dir Wind Speed Gust Speed Precip Events Conditions
12:55 AM 73.9 °F - 66.9 °F 79% 29.87 in 10.0 mi Calm Calm - N/A   Clear
1:55 AM 73.9 °F - 66.9 °F 79% 29.87 in 10.0 mi ESE 4.6 mph - N/A   Clear
2:55 AM 73.9 °F - 66.0 °F 76% 29.87 in 10.0 mi North 3.5 mph - N/A   Partly Cloudy
3:55 AM 73.0 °F - 68.0 °F 84% 29.88 in 9.0 mi North 8.1 mph - 0.01 in Rain Light Rain
4:55 AM 71.1 °F - 68.0 °F 90% 29.89 in 5.0 mi NNE 5.8 mph - 0.07 in Rain Rain
5:55 AM 70.0 °F - 66.9 °F 90% 29.87 in 5.0 mi NE 3.5 mph - 0.16 in Rain Rain
6:55 AM 70.0 °F - 66.0 °F 87% 29.88 in 10.0 mi ESE 4.6 mph - 0.02 in   Mostly Cloudy
7:31 AM 69.8 °F - 66.2 °F 88% 29.90 in 7.0 mi Calm Calm - N/A   Scattered Clouds
7:55 AM 70.0 °F - 66.0 °F 87% 29.90 in 8.0 mi Calm Calm - N/A   Scattered Clouds
8:05 AM 69.8 °F - 66.2 °F 88% 29.91 in 9.0 mi Calm Calm - N/A   Mostly Cloudy
8:55 AM 71.1 °F - 66.0 °F 84% 29.91 in 8.0 mi Calm Calm - N/A   Overcast
9:55 AM 72.0 °F - 66.9 °F 84% 29.91 in 10.0 mi Calm Calm - N/A   Overcast
10:55 AM 75.9 °F - 66.9 °F 74% 29.91 in 10.0 mi North 3.5 mph - N/A   Overcast
11:22 AM 75.2 °F - 68.0 °F 78% 29.92 in 10.0 mi NNE 4.6 mph - N/A   Overcast
11:55 AM 77.0 °F - 68.0 °F 74% 29.91 in 10.0 mi Variable 4.6 mph - N/A   Mostly Cloudy
12:55 PM 80.1 °F 82.3 °F 66.9 °F 64% 29.91 in 10.0 mi Calm Calm - N/A   Mostly Cloudy
1:48 PM 82.4 °F 84.6 °F 66.2 °F 58% 29.88 in 10.0 mi North 6.9 mph - N/A   Scattered Clouds
1:55 PM 82.0 °F 84.5 °F 66.9 °F 60% 29.87 in 10.0 mi Variable 3.5 mph - N/A   Scattered Clouds
2:55 PM 84.9 °F 87.6 °F 66.9 °F 55% 29.86 in 10.0 mi NNW 3.5 mph - N/A   Scattered Clouds
3:55 PM 84.0 °F 87.0 °F 68.0 °F 58% 29.86 in 10.0 mi West 6.9 mph - N/A   Scattered Clouds
4:55 PM 82.0 °F 84.5 °F 66.9 °F 60% 29.85 in 10.0 mi WSW 9.2 mph - N/A   Scattered Clouds
5:55 PM 82.0 °F 84.5 °F 66.9 °F 60% 29.85 in 10.0 mi WNW 5.8 mph - N/A   Partly Cloudy
6:55 PM 80.1 °F 82.3 °F 66.9 °F 64% 29.85 in 10.0 mi West 3.5 mph - N/A   Partly Cloudy
7:55 PM 75.9 °F - 66.9 °F 74% 29.84 in 10.0 mi WSW 3.5 mph - N/A   Partly Cloudy
8:55 PM 72.0 °F - 66.9 °F 84% 29.85 in 10.0 mi Calm Calm - N/A   Clear
9:55 PM 71.1 °F - 66.9 °F 87% 29.85 in 10.0 mi Calm Calm - N/A   Clear
10:55 PM 71.1 °F - 66.9 °F 87% 29.85 in 10.0 mi East 4.6 mph - N/A   Clear
11:55 PM 70.0 °F - 64.9 °F 84% 29.85 in 10.0 mi Calm Calm - N/A   Clear